Temp
13 10 10 12 13 14 13 12 12 13 14 15 15 15 17 18 17 17 18 20 20 21 22 19 16 15 13 13 14 13 12 12 11 11 11 11 11 10 10 10 11 11 11 12
12 12 13 13 13 13 13 12 12 14 14 14 13 14 17 17 17 18 19 19 20 21 22 18 16 14 14 14 14 13 12 11 11 11 11 11 10 9 9 10 10 10 10 11
12 14 14 14 13 13 13 12 13 13 14 14 14 15 16 18 18 19 19 20 21 21 22 20 16 16 14 14 15 14 13 11 11 10 10 10 9 9 9 9 9 10 9 9
11 13 14 14 13 13 12 14 14 13 13 13 14 14 16 17 17 18 18 19 20 21 21 20 18 15 13 15 15 15 14 12 11 10 10 10 10 9 9 9 9 9 9 8
12 13 12 13 13 14 13 14 14 14 12 13 14 13 15 17 17 17 15 18 19 20 21 20 20 18 17 13 14 14 12 11 11 10 10 9 9 9 9 8 8 8 8 7
11 13 12 13 13 13 14 13 13 13 12 11 14 14 14 16 16 16 16 17 18 19 20 20 18 18 15 12 11 11 11 11 10 10 10 9 9 9 8 8 8 8 8 7
10 11 12 13 12 13 12 11 10 11 11 12 15 14 15 17 18 17 16 15 18 18 18 19 18 15 13 11 11 10 10 10 10 9 9 11 12 9 9 9 8 8 8 7
10 10 13 12 11 13 11 12 11 11 11 13 14 13 15 17 18 17 12 12 13 15 16 18 17 17 13 13 12 11 10 9 8 9 9 9 8 9 9 9 9 8 8 7
8 10 12 11 11 12 11 10 13 11 11 11 13 14 15 15 13 11 10 12 12 12 13 15 16 16 15 13 12 10 9 7 7 8 8 8 7 7 7 8 8 8 7 6
7 8 9 9 11 11 11 12 10 10 10 10 11 12 13 10 9 10 9 9 10 11 13 14 16 14 12 10 8 7 6 6 6 7 7 7 6 7 6 7 7 7 7 7
3 5 7 8 9 7 10 10 10 10 9 10 11 11 7 7 7 7 8 9 10 9 11 12 11 10 9 7 6 6 5 5 5 7 6 6 5 5 6 6 6 7 7 7
3 3 4 4 8 8 7 5 5 6 6 6 7 8 3 5 7 7 7 7 9 9 8 11 11 10 8 7 6 6 5 5 6 7 6 6 6 5 4 4 6 6 6 6
3 3 3 6 7 4 4 4 4 4 5 5 5 6 7 8 8 8 8 8 9 9 8 9 9 9 9 8 7 7 6 6 7 7 6 5 3 4 4 4 5 5 5 5
4 3 3 3 5 4 4 5 5 4 5 5 5 6 8 8 7 8 10 10 10 11 9 8 8 8 7 7 7 6 7 8 8 8 6 4 5 4 4 5 5 4 4 4
3 2 4 4 5 5 3 5 5 5 6 4 6 7 7 8 7 7 8 9 10 11 10 8 8 8 7 7 7 6 7 8 7 6 4 5 3 4 4 5 4 3 3 3
1 -1 1 -1 4 5 4 4 5 6 6 6 6 6 8 9 10 8 8 9 9 10 11 10 10 9 9 8 7 7 6 7 6 5 5 4 5 4 5 4 3 3 3 3
-0 -2 -1 0 4 4 2 5 6 7 7 7 6 7 7 8 10 10 10 9 8 9 10 11 11 11 10 9 8 8 7 7 5 5 5 5 5 4 4 4 3 3 3 2
0 -1 -2 -1 2 -2 4 6 7 6 7 5 5 5 5 5 6 7 9 8 7 7 9 11 11 11 11 10 8 7 7 5 5 4 5 5 4 3 3 3 3 3 2 1
0 0 -2 -3 1 3 4 5 4 4 5 3 3 5 5 5 6 7 8 7 7 7 9 10 11 11 12 11 9 8 7 5 5 5 4 4 3 2 1 2 2 1 2 -0
0 0 -0 -1 0 1 3 3 4 4 4 4 3 3 3 5 4 4 6 6 7 7 7 11 11 10 10 9 9 8 7 6 5 5 5 4 3 1 -0 1 1 1 -0 0
-2 -7 -3 -1 0 2 1 1 3 3 3 3 3 2 2 4 4 4 5 6 7 7 6 6 11 9 8 7 7 6 6 6 5 5 4 3 2 1 -0 -0 -0 1 -2 -2
1 -3 -4 -3 0 0 1 2 1 2 3 3 3 3 2 2 3 5 5 6 6 6 8 8 6 10 9 8 7 6 5 5 5 4 3 2 2 -0 -0 -2 -1 -1 -3 -1
-0 -1 -2 -0 1 3 1 0 3 2 3 3 3 3 1 1 3 4 5 6 7 7 7 7 5 6 7 7 6 6 6 5 4 4 2 1 1 -0 -1 -1 -1 -2 -2 -4
0 2 -2 0 2 2 3 3 3 3 3 3 3 3 3 3 4 4 5 6 6 5 5 6 6 6 6 5 5 4 4 4 2 1 1 0 -0 -1 -2 -2 -1 -1 -3 -5
-1 1 0 0 1 2 3 3 3 3 3 3 3 3 3 3 4 4 4 5 5 4 5 5 5 3 3 4 4 3 3 2 1 0 0 -1 -2 -2 -2 -2 -2 -2 -2 -2
-0 1 -1 -0 2 1 2 2 3 3 3 3 3 3 4 4 4 4 4 3 3 4 5 5 5 2 1 2 2 2 2 1 1 0 -1 -2 -2 -3 -3 -3 -3 -3 -3 -3
Height
1472 1475 1468 1460 1460 1457 1461 1463 1460 1456 1453 1455 1454 1430 1411 1422 1423 1420 1415 1413 1410 1407 1406 1408 1411 1412 1417 1422 1425 1431 1437 1444 1447 1449 1454 1458 1461 1467 1474 1479 1483 1485 1488 1490
1473 1455 1453 1455 1456 1458 1460 1462 1447 1444 1447 1451 1450 1428 1402 1414 1413 1413 1410 1406 1403 1400 1398 1398 1401 1404 1404 1409 1416 1423 1427 1435 1440 1445 1450 1454 1456 1463 1471 1475 1478 1482 1485 1487
1465 1446 1445 1452 1453 1459 1458 1448 1447 1449 1446 1440 1443 1429 1401 1390 1401 1402 1399 1398 1394 1390 1387 1388 1391 1392 1396 1398 1403 1409 1414 1423 1432 1437 1443 1447 1454 1460 1463 1467 1471 1475 1481 1484
1455 1450 1450 1452 1450 1460 1452 1447 1445 1446 1452 1448 1434 1437 1400 1378 1389 1392 1390 1389 1385 1384 1382 1381 1381 1385 1388 1388 1393 1400 1406 1413 1421 1427 1434 1439 1444 1447 1451 1458 1465 1469 1476 1481
1435 1444 1447 1444 1439 1452 1436 1441 1440 1439 1444 1445 1424 1435 1390 1380 1380 1378 1379 1376 1374 1373 1373 1373 1374 1374 1376 1384 1384 1390 1397 1405 1412 1419 1427 1434 1441 1447 1450 1457 1462 1466 1470 1477
1437 1440 1443 1442 1443 1445 1442 1439 1437 1436 1437 1441 1409 1414 1407 1383 1366 1363 1364 1365 1368 1368 1365 1363 1364 1368 1370 1376 1381 1386 1391 1397 1402 1411 1418 1428 1433 1437 1446 1452 1456 1461 1466 1472
1442 1435 1431 1443 1446 1440 1444 1448 1449 1444 1431 1419 1397 1413 1399 1357 1350 1359 1362 1359 1358 1359 1357 1355 1355 1357 1363 1367 1372 1377 1380 1387 1393 1403 1412 1418 1419 1434 1442 1446 1451 1456 1461 1466
1449 1439 1424 1427 1433 1429 1435 1435 1444 1426 1425 1407 1399 1394 1374 1366 1360 1365 1364 1364 1361 1355 1350 1346 1346 1348 1350 1355 1361 1367 1371 1378 1386 1396 1406 1410 1420 1430 1437 1442 1447 1453 1458 1463
1451 1439 1420 1424 1429 1430 1423 1428 1413 1426 1419 1413 1396 1382 1367 1361 1367 1365 1366 1362 1358 1354 1347 1339 1337 1339 1339 1343 1349 1356 1363 1372 1380 1389 1398 1409 1416 1420 1431 1437 1445 1451 1457 1461
1458 1441 1430 1422 1422 1418 1420 1412 1419 1415 1416 1408 1383 1380 1369 1375 1376 1375 1368 1367 1362 1355 1344 1337 1329 1332 1337 1342 1348 1359 1367 1369 1380 1388 1397 1404 1413 1416 1437 1440 1440 1447 1453 1458
1468 1459 1439 1435 1423 1434 1424 1413 1415 1403 1396 1385 1376 1373 1392 1395 1386 1385 1379 1375 1368 1361 1349 1340 1335 1336 1339 1345 1351 1359 1365 1371 1378 1387 1392 1400 1409 1417 1427 1444 1440 1444 1450 1457
1467 1465 1456 1448 1427 1426 1439 1434 1445 1415 1417 1411 1388 1378 1393 1397 1385 1383 1384 1378 1367 1362 1360 1344 1339 1340 1343 1349 1356 1361 1366 1370 1378 1384 1393 1402 1405 1409 1422 1436 1437 1443 1449 1454
1466 1463 1459 1432 1430 1434 1441 1437 1434 1434 1425 1415 1411 1395 1384 1384 1384 1382 1378 1379 1370 1365 1355 1347 1344 1342 1346 1348 1353 1356 1363 1370 1376 1384 1391 1393 1405 1405 1421 1433 1436 1440 1446 1452
1463 1460 1462 1459 1442 1440 1437 1429 1426 1433 1422 1411 1414 1402 1380 1381 1376 1369 1369 1368 1364 1355 1356 1355 1348 1346 1350 1353 1355 1358 1361 1368 1376 1381 1386 1394 1401 1407 1417 1428 1433 1439 1443 1447
1457 1460 1451 1444 1438 1437 1437 1421 1416 1419 1408 1422 1401 1399 1376 1360 1372 1370 1363 1367 1361 1353 1356 1352 1352 1349 1351 1355 1356 1359 1364 1364 1372 1376 1384 1391 1400 1406 1414 1424 1428 1434 1440 1445
1455 1461 1450 1450 1433 1430 1429 1419 1410 1408 1404 1403 1397 1381 1370 1366 1365 1357 1366 1367 1360 1351 1352 1346 1348 1351 1351 1351 1356 1357 1362 1364 1371 1377 1384 1391 1399 1407 1413 1420 1424 1430 1435 1442
1455 1460 1455 1449 1433 1430 1437 1407 1400 1393 1388 1387 1385 1379 1376 1357 1358 1358 1355 1357 1350 1348 1340 1341 1346 1346 1345 1346 1352 1353 1358 1365 1371 1378 1385 1389 1397 1406 1412 1417 1422 1427 1430 1438
1449 1454 1457 1450 1437 1455 1407 1398 1395 1390 1383 1386 1387 1382 1373 1369 1364 1352 1355 1351 1344 1337 1332 1335 1340 1343 1342 1344 1350 1353 1354 1363 1369 1375 1384 1388 1396 1403 1411 1418 1421 1423 1429 1433
1442 1450 1453 1455 1432 1414 1401 1397 1400 1397 1388 1390 1390 1379 1369 1366 1356 1349 1353 1349 1346 1341 1329 1329 1334 1339 1336 1338 1345 1348 1352 1358 1366 1372 1379 1387 1393 1400 1406 1414 1420 1423 1424 1428
1436 1442 1445 1445 1434 1421 1401 1400 1398 1395 1391 1387 1386 1378 1379 1369 1366 1363 1355 1347 1343 1341 1331 1327 1330 1333 1334 1336 1342 1345 1350 1355 1362 1369 1376 1384 1390 1397 1402 1411 1414 1418 1422 1424
1441 1455 1448 1439 1432 1414 1411 1406 1394 1392 1394 1387 1384 1382 1378 1370 1368 1358 1356 1350 1345 1338 1333 1332 1333 1331 1331 1335 1339 1340 1347 1352 1359 1368 1374 1381 1388 1394 1399 1406 1411 1414 1420 1422
1429 1443 1446 1438 1423 1418 1409 1405 1406 1399 1390 1386 1380 1375 1369 1359 1359 1355 1353 1350 1345 1343 1338 1336 1336 1326 1331 1335 1334 1340 1346 1351 1356 1365 1373 1381 1386 1391 1393 1402 1408 1409 1417 1420
1429 1423 1427 1423 1412 1402 1404 1400 1396 1394 1388 1382 1378 1370 1361 1358 1356 1352 1348 1346 1345 1342 1340 1337 1335 1329 1329 1329 1334 1338 1343 1349 1355 1361 1371 1380 1384 1387 1390 1397 1401 1406 1412 1418
1414 1411 1416 1412 1399 1398 1398 1394 1391 1388 1384 1377 1373 1367 1362 1356 1351 1346 1342 1340 1338 1337 1335 1331 1327 1325 1331 1334 1335 1340 1343 1348 1355 1362 1368 1374 1379 1383 1390 1393 1397 1403 1409 1414
1408 1406 1404 1402 1395 1395 1390 1386 1386 1381 1379 1373 1369 1364 1357 1354 1347 1341 1335 1334 1332 1331 1331 1331 1327 1330 1334 1335 1337 1343 1346 1350 1356 1362 1366 1372 1377 1380 1386 1389 1394 1401 1406 1410
1396 1394 1403 1394 1387 1389 1384 1379 1379 1375 1371 1367 1363 1357 1353 1352 1348 1342 1337 1336 1333 1331 1330 1330 1329 1330 1333 1334 1337 1341 1345 1351 1356 1359 1364 1369 1373 1377 1382 1387 1391 1399 1404 1410
Wind_Speed
7 4 11 20 19 15 4 7 12 3 4 7 12 28 28 16 15 20 27 31 36 34 39 39 46 50 50 49 50 49 49 47 48 48 47 44 41 38 32 30 29 28 26 25
5 21 13 9 15 17 18 18 25 19 12 10 8 25 30 17 16 20 27 29 36 39 35 33 39 47 54 54 53 52 52 51 53 51 50 47 44 39 33 31 30 29 27 25
16 9 6 16 14 15 17 25 23 19 2 13 8 23 30 26 18 25 30 36 40 39 37 34 39 47 53 56 56 57 56 55 56 55 53 50 43 38 37 37 35 31 28 25
15 15 22 17 15 11 22 12 21 18 10 10 9 10 27 27 20 15 19 29 39 38 34 30 38 45 53 59 57 58 57 56 61 60 57 53 50 49 46 42 36 32 29 26
14 1 8 22 26 14 27 9 18 14 9 6 22 8 22 27 26 19 13 26 33 33 34 36 39 45 54 56 60 61 60 58 63 62 58 52 50 47 44 38 35 31 29 26
19 17 5 8 6 6 11 12 7 8 7 11 33 17 12 18 14 4 4 15 21 23 30 34 35 41 50 52 55 57 59 59 64 63 58 53 51 51 45 41 38 33 30 27
6 17 24 23 20 20 13 11 5 6 11 15 23 13 20 29 18 21 13 11 22 28 32 40 36 38 45 51 56 58 61 62 66 63 59 52 46 48 45 43 39 35 33 30
9 15 7 5 16 19 12 17 11 21 11 16 8 13 18 14 23 17 6 10 14 16 20 30 34 37 48 53 57 61 63 63 64 62 59 57 45 43 43 42 38 35 32 28
3 10 11 6 3 5 7 14 19 21 25 17 19 22 15 10 4 7 8 18 21 20 20 22 24 38 46 55 58 62 61 59 60 62 60 53 45 42 47 41 36 32 28 25
5 7 9 10 5 12 13 4 3 8 16 28 13 20 17 8 11 14 14 14 27 18 15 19 20 27 41 46 48 48 47 51 55 58 53 49 44 40 36 37 34 30 27 23
8 5 6 8 3 13 8 6 11 8 8 11 20 7 9 15 15 17 18 26 25 21 9 6 1 17 28 34 37 40 43 45 50 53 50 48 42 35 40 36 34 32 27 28
3 4 4 9 20 8 10 4 4 2 7 7 4 2 7 10 15 15 16 27 30 25 10 3 7 15 22 28 34 39 42 45 47 50 42 35 36 37 42 39 35 32 31 29
1 1 5 9 5 4 4 8 5 5 7 2 3 5 5 6 8 14 15 18 12 25 10 9 14 17 24 30 36 41 42 43 45 39 42 43 44 41 40 40 37 35 31 29
7 5 8 7 11 7 10 13 12 5 4 3 8 19 17 8 7 11 15 27 26 28 11 16 18 19 25 31 36 39 40 38 39 42 44 41 37 43 38 41 38 36 32 27
5 6 6 11 13 13 16 19 12 12 13 10 22 19 20 16 9 12 25 31 31 24 18 20 20 23 25 31 33 37 40 41 43 43 41 39 46 42 41 41 38 35 29 26
3 4 3 6 14 12 12 19 23 17 18 15 18 21 19 18 25 17 22 28 29 26 25 20 21 22 26 29 34 37 40 39 41 39 40 45 45 44 45 41 39 34 29 27
4 3 2 6 6 4 6 20 16 12 12 11 11 17 15 17 16 12 15 17 25 33 25 29 32 30 30 32 34 35 36 35 37 39 44 44 44 45 42 41 38 34 32 27
4 3 2 5 6 5 10 6 13 12 7 5 7 11 10 12 25 26 26 19 27 29 26 27 32 32 31 31 32 34 33 34 39 43 44 43 45 43 40 40 38 36 32 31
14 5 3 3 4 8 10 3 4 7 3 7 10 13 16 22 21 16 16 26 24 27 14 18 27 31 33 30 31 30 30 35 41 43 44 44 44 42 40 41 40 36 35 31
6 10 4 3 4 4 1 13 16 13 6 9 12 10 14 16 6 5 31 31 27 24 16 2 14 23 28 30 32 32 34 37 42 43 43 44 43 42 43 44 40 37 31 32
2 1 6 7 7 6 10 18 25 6 6 23 21 18 16 6 7 19 27 25 28 19 24 6 10 16 20 25 28 29 32 35 37 42 44 45 45 46 45 44 41 37 31 25
3 3 3 3 5 6 15 16 7 12 17 18 24 22 21 22 27 22 29 27 24 18 11 16 18 9 13 18 22 26 30 33 36 41 44 46 48 47 45 45 37 32 31 26
4 6 4 7 5 7 6 17 28 19 19 25 26 24 25 22 28 25 27 26 17 24 25 18 20 14 13 15 21 24 27 31 35 38 43 46 47 45 45 46 37 32 30 29
4 5 4 1 7 13 14 23 22 20 26 31 28 24 23 27 31 29 31 24 21 23 15 9 9 11 16 18 20 22 22 27 31 36 39 43 43 42 45 39 36 33 31 32
6 4 4 8 12 13 22 19 15 27 32 30 24 21 20 20 25 28 20 17 12 9 5 6 5 10 16 16 17 19 21 25 29 33 37 39 40 40 39 36 32 27 26 24
9 10 4 9 15 14 21 24 25 32 33 25 25 24 16 9 13 17 13 5 4 4 7 8 8 8 12 14 16 17 18 20 23 28 33 37 36 33 33 32 30 27 21 19
Wind_Direction
198 202 209 203 206 230 207 241 256 184 230 304 273 280 284 288 265 271 274 276 280 282 290 265 241 232 226 222 221 219 216 212 208 205 205 205 205 205 209 211 213 213 214 213
294 242 223 205 217 225 241 259 263 277 244 238 249 272 283 283 270 257 266 267 275 278 277 258 240 232 226 223 221 219 220 214 210 210 209 210 206 204 209 212 212 212 212 211
226 215 213 216 228 226 242 240 259 253 234 257 275 282 286 281 266 266 258 263 268 266 263 258 242 234 227 223 221 220 220 214 210 210 209 208 203 203 206 209 209 207 209 209
254 264 256 260 242 226 254 230 259 265 271 263 165 277 289 278 278 259 255 254 261 262 263 259 246 231 227 228 222 218 218 215 211 212 212 212 207 203 206 206 203 205 207 207
226 84 221 238 247 229 257 227 247 253 242 294 266 234 262 286 277 267 239 249 255 262 269 263 247 241 237 226 223 217 215 213 211 212 213 211 211 210 209 202 203 202 201 203
264 284 280 253 300 241 298 283 264 273 261 250 253 238 280 264 257 208 225 246 262 274 277 276 265 249 233 219 216 213 213 213 212 210 212 213 214 213 205 202 201 200 200 202
278 255 256 255 270 272 269 277 279 253 232 249 267 272 232 258 260 250 264 265 281 275 273 271 272 233 216 214 215 214 213 213 212 208 211 212 218 217 210 206 201 200 198 199
271 292 225 201 209 241 211 224 233 251 249 256 256 235 244 267 266 271 13 344 328 305 280 272 263 247 218 218 219 217 213 210 209 206 207 211 212 211 211 209 204 203 201 198
292 257 311 255 323 225 281 220 242 253 261 270 259 279 287 274 360 352 346 350 348 339 319 294 265 241 225 217 216 214 208 202 202 204 206 209 206 207 208 202 202 200 197 194
323 280 263 301 295 257 230 265 211 220 242 247 232 246 250 3 9 348 358 345 341 341 345 325 299 230 211 203 199 198 196 195 196 201 203 206 203 197 213 207 197 192 191 196
14 318 325 338 333 323 301 262 252 266 253 244 243 244 29 25 7 343 334 330 332 324 341 348 194 171 181 186 188 186 187 190 194 200 200 202 197 192 202 211 195 191 188 204
104 275 309 276 284 336 282 71 294 340 335 283 307 130 80 343 355 332 324 327 326 315 268 198 181 187 185 188 188 189 192 197 202 200 200 200 203 196 201 206 197 195 194 200
179 8 308 308 140 97 357 307 245 274 230 278 3 292 7 276 313 303 292 261 296 262 210 176 184 186 194 195 197 197 200 202 201 195 201 202 200 192 200 202 197 198 193 194
168 204 213 241 268 306 280 298 303 256 269 355 267 277 279 245 288 292 283 267 265 291 255 202 186 187 192 194 196 198 199 201 200 206 209 203 200 193 198 200 199 193 192 187
191 238 238 253 264 278 277 294 291 293 292 271 276 281 285 303 284 263 293 295 293 292 256 216 209 200 200 200 201 199 200 197 206 207 205 200 196 194 192 199 196 192 187 185
196 253 236 282 287 265 278 285 278 268 268 257 254 266 279 282 271 251 249 270 282 290 278 252 230 224 217 212 208 202 204 204 208 205 203 196 195 193 192 198 192 188 183 193
187 214 161 256 265 280 286 258 274 262 260 269 282 289 344 323 298 283 291 296 298 277 277 271 240 232 226 223 218 212 210 212 210 207 198 197 196 191 191 197 190 187 190 194
226 176 172 264 270 216 236 300 283 264 283 9 327 330 335 341 322 310 294 291 318 311 270 253 243 231 230 227 223 219 216 211 205 200 198 196 193 194 194 198 193 191 195 194
219 198 256 211 228 277 288 3 338 322 249 38 329 329 335 328 339 331 344 336 319 323 290 257 248 232 229 228 221 218 212 208 205 202 201 199 197 198 201 200 198 198 198 195
180 203 201 328 263 261 324 335 316 280 250 343 336 324 309 325 326 289 327 331 327 322 334 265 243 240 235 228 224 218 213 210 209 209 209 206 203 207 203 203 203 201 194 205
299 47 197 230 245 274 4 325 316 272 327 317 318 295 295 292 284 307 311 319 331 328 326 321 268 239 230 223 219 216 217 217 215 212 210 207 206 204 206 202 205 202 199 195
225 166 237 262 231 253 358 330 354 308 292 291 310 316 325 314 304 309 303 304 290 308 316 306 268 248 240 233 226 219 217 216 215 214 212 209 207 209 206 205 205 199 199 199
239 189 190 179 231 273 212 233 285 276 294 309 308 303 313 300 305 308 306 301 280 276 266 264 253 236 230 230 223 219 219 218 216 217 214 211 210 211 210 206 204 197 203 197
251 200 210 165 246 263 267 280 285 286 310 309 311 304 299 298 309 302 305 296 298 257 258 277 258 257 243 230 223 222 221 220 216 213 213 213 214 213 208 206 207 204 200 198
199 185 212 257 279 277 275 271 276 303 314 309 306 313 317 302 313 318 302 297 286 247 288 311 311 247 234 224 220 220 220 220 215 214 215 215 213 212 207 205 204 203 208 217
195 227 198 253 261 246 270 280 298 307 310 315 315 327 343 324 10 14 10 337 340 324 323 321 309 271 243 219 209 210 210 215 218 215 214 213 212 207 206 203 198 204 212 222